Weather History for KGEG - March, 2013

Change the Weather History Date:

Tuesday, March 26, 2013

  Actual Average Record
Temperature  
Mean Temperature 43 °F 43 °F  
Max Temperature 56 °F 52 °F 67 °F (1946)
Min Temperature 29 °F 34 °F 16 °F (1904)
Degree Days  
Heating Degree Days 22 22  
Month to date heating degree days 654 660  
Since 1 July heating degree days 5191 5489  
Cooling Degree Days 0 0  
Month to date cooling degree days 0 0  
Year to date cooling degree days 0 0  
Moisture  
Dew Point 26 °F    
Average Humidity 54    
Maximum Humidity 72    
Minimum Humidity 35    
Precipitation  
Precipitation 0.00 in 0.05 in 0.62 in (2012)
Month to date precipitation 0.81 1.35  
Year to date precipitation 3.18 4.47  
Snow  
Snow 0.00 in 0.10 in 0.80 in (2008)
Month to date snowfall 0.9 3.0  
Since 1 July snowfall 43.5 43.3  
Snow Depth 0.00 in    
Sea Level Pressure  
Sea Level Pressure 29.99 in    
Wind  
Wind Speed 3 mph (NNE)    
Max Wind Speed 9 mph    
Max Gust Speed 15 mph    
Visibility 10 miles    
Events      
T = Trace of Precipitation, MM = Missing Value Source: NWS Daily Summary

Daily Weather History Graph

Daily Weather History Graph

Search for Another Location

Airport or City:

Trip Planner

Search our weather history database for the weather conditions in past years. The results will help you decide how hot, cold, wet, or windy it might be!

Date:

Astronomy

Mar. 26, 2013 Rise Set
Actual Time 6:40 AM PDT 7:11 PM PDT
Civil Twilight 6:09 AM PDT 7:42 PM PDT
Nautical Twilight 5:32 AM PDT 8:19 PM PDT
Astronomical Twilight 4:54 AM PDT 8:58 PM PDT
Moon 6:55 PM PDT (3/26) 6:00 AM PDT (3/26)
Length of Visible Light 13h 33m
Length of Day
12h 31m
Full, 100% of the Moon is Illuminated
Mar 26
Full
Mar 27
Full
Apr 2
Last Quarter
Apr 10
New
Apr 18
First Quarter

Hourly Weather History & Observations

Time (PDT) Temp. Windchill Dew Point Humidity Pressure Visibility Wind Dir Wind Speed Gust Speed Precip Events Conditions
12:53 AM 36.0 °F 32.1 °F 24.1 °F 62% 30.00 in 10.0 mi NE 4.6 mph - N/A   Partly Cloudy
1:53 AM 33.1 °F 27.7 °F 24.1 °F 70% 30.00 in 10.0 mi NE 5.8 mph - N/A   Partly Cloudy
2:53 AM 33.1 °F 28.7 °F 24.1 °F 70% 30.00 in 10.0 mi NE 4.6 mph - N/A   Partly Cloudy
3:53 AM 32.0 °F - 23.0 °F 69% 30.00 in 10.0 mi Calm Calm - N/A   Partly Cloudy
4:53 AM 30.0 °F 25.2 °F 23.0 °F 75% 30.01 in 10.0 mi NE 4.6 mph - N/A   Partly Cloudy
5:53 AM 30.9 °F 26.2 °F 21.9 °F 69% 30.00 in 10.0 mi NE 4.6 mph - N/A   Partly Cloudy
6:53 AM 30.0 °F 25.2 °F 21.0 °F 69% 30.01 in 10.0 mi NE 4.6 mph - N/A   Scattered Clouds
7:53 AM 33.1 °F 27.7 °F 23.0 °F 66% 30.01 in 10.0 mi NNE 5.8 mph - N/A   Partly Cloudy
8:53 AM 35.1 °F 28.6 °F 23.0 °F 61% 30.03 in 10.0 mi NE 8.1 mph - N/A   Partly Cloudy
9:53 AM 39.0 °F 34.0 °F 24.1 °F 55% 30.03 in 10.0 mi NE 6.9 mph - N/A   Partly Cloudy
10:53 AM 43.0 °F 40.3 °F 24.1 °F 47% 30.02 in 10.0 mi ENE 4.6 mph - N/A   Partly Cloudy
11:53 AM 46.9 °F - 26.1 °F 44% 30.01 in 10.0 mi NNE 3.5 mph - N/A   Partly Cloudy
12:53 PM 50.0 °F - 26.1 °F 39% 30.00 in 10.0 mi Calm Calm - N/A   Partly Cloudy
1:53 PM 52.0 °F - 26.1 °F 37% 29.99 in 10.0 mi SSW 3.5 mph - N/A   Partly Cloudy
2:53 PM 53.1 °F - 28.0 °F 38% 29.98 in 10.0 mi Calm Calm - N/A   Scattered Clouds
3:53 PM 55.0 °F - 28.9 °F 37% 29.96 in 10.0 mi West 9.2 mph - N/A   Scattered Clouds
4:53 PM 55.0 °F - 28.9 °F 37% 29.96 in 10.0 mi West 4.6 mph - N/A   Mostly Cloudy
5:53 PM 54.0 °F - 28.9 °F 38% 29.95 in 10.0 mi Calm Calm - N/A   Scattered Clouds
6:53 PM 52.0 °F - 28.9 °F 41% 29.96 in 10.0 mi West 4.6 mph - N/A   Mostly Cloudy
7:53 PM 48.9 °F - 28.0 °F 44% 29.96 in 10.0 mi Calm Calm - N/A   Scattered Clouds
8:53 PM 46.9 °F - 28.9 °F 50% 29.97 in 10.0 mi Calm Calm - N/A   Scattered Clouds
9:53 PM 42.1 °F - 30.0 °F 62% 29.97 in 10.0 mi Calm Calm - N/A   Scattered Clouds
10:53 PM 39.0 °F - 30.0 °F 70% 29.97 in 10.0 mi Calm Calm - N/A   Mostly Cloudy
11:53 PM 37.0 °F - 28.9 °F 73% 29.96 in 10.0 mi Calm Calm - N/A   Mostly Cloudy